Regional Weather Roundup
Issued by NWS

Home | Current Version | Previous Version | Graphics & Text | Print | Product List | Glossary On
Versions: 1 2 3 4 5 6 7 8 9 10 11 12 13 14 15 16 17 18 19 20 21 22 23 24 25 26 27 28 29 30 31 32 33 34 35 36 37 38 39 40 41 42 43 44 45 46 47 48 49 50
939
ASUS43 KLMK 240202
RWRKY
KENTUCKY REGIONAL WEATHER ROUNDUP
NATIONAL WEATHER SERVICE LOUISVILLE KY
900 PM EST MON JAN 23 2017

NOTE "FAIR" INDICATES FEW OR NO CLOUDS BELOW 12,000 FEET
WITH NO SIGNIFICANT WEATHER AND/OR OBSTRUCTIONS TO VISIBILITY.

KYZ001>023-026-027-061>063-070>075-240300-
WESTERN AND SOUTH CENTRAL KENTUCKY

CITY           SKY/WX    TMP DP  RH WIND       PRES   REMARKS
PADUCAH        CLOUDY    43  33  68 N10       29.84S
HENDERSON      CLOUDY    43  34  70 NW10      29.82S
OWENSBORO      CLOUDY    42  36  79 NW14      29.82R
HOPKINSVILLE   CLOUDY    42  35  77 NW8       29.83R
BOWLING GREEN  CLOUDY    43  36  76 NW12      29.80R
GLASGOW        NOT AVBL
$$

KYZ024-025-028>034-038-045-046-053-240300-
NORTH CENTRAL KENTUCKY

CITY           SKY/WX    TMP DP  RH WIND       PRES   REMARKS
LOUISVILLE/SDF CLOUDY    44  38  79 NW14      29.75R
LOUISVILLE/LOU CLOUDY    44  39  82 NW14      29.75R
FORT KNOX      CLOUDY    41  38  90 W13       29.75R FOG
$$

KYZ035>037-039>044-047>052-055>060-089>105-240300-
NORTHEAST KENTUCKY

CITY           SKY/WX    TMP DP  RH WIND       PRES   REMARKS
LEXINGTON      CLOUDY    44  42  93 NW14G23   29.68R
COVINGTON      DRIZZLE   45  43  93 NW16      29.66R
FRANKFORT      CLOUDY    45  40  82 NW9       29.69R
$$

KYZ054-064>069-076>088-106>120-240300-
SOUTHEAST KENTUCKY

CITY           SKY/WX    TMP DP  RH WIND       PRES   REMARKS
JACKSON        LGT RAIN  46  44  93 W10G16    29.59R FOG
LONDON         LGT RAIN  44  41  89 NW9G20    29.66R FOG
SOMERSET       CLOUDY    43  43 100 NW13      29.71R FOG
MIDDLESBORO    DRIZZLE   46  44  93 W7        29.64R
MONTICELLO     LGT RAIN  43  41  93 W16       29.74R FOG
$$





USA.gov is the U.S. government's official web portal to all federal, state and local government web resources and services.